Regional Weather Roundup
Issued by NWS Newport/Morehead, NC

Current Version | Previous Version | Graphics & Text | Print | Product List | Glossary Off
Versions: 1 2 3 4 5 6 7 8 9 10 11 12 13 14 15 16 17 18 19 20 21 22 23 24 25 26 27 28 29 30 31 32 33 34 35 36 37 38 39 40 41 42 43 44 45 46 47 48 49 50
000 ASUS42 KMHX 260222 RWRMHX WEATHER ROUNDUP FOR EASTERN NORTH CAROLINA NATIONAL WEATHER SERVICE NEWPORT/MOREHEAD CITY NC 900 PM EST THU DEC 25 2014 NOTE: "FAIR" INDICATES FEW OR NO CLOUDS BELOW 12,000 FEET WITH NO SIGNIFICANT WEATHER AND/OR OBSTRUCTIONS TO VISIBILITY NCZ015>017-031-032-045>047-102-103-260300- NORTH COAST CITY SKY/WX TMP DP RH WIND PRES REMARKS EDENTON N/A 43 37 80 CALM 30.23R ELIZABETH CITY FAIR 48 37 65 W5 30.22R KITTY HAWK CLEAR 49 43 81 NW3 30.21R MANTEO CLEAR 46 41 81 CALM 30.22R $$ NCZ045>047-081-094-103-104-260300- CENTRAL COAST CITY SKY/WX TMP DP RH WIND PRES REMARKS FRISCO CLEAR 42 41 96 NW3 30.21R SWANQUARTER N/A 46 N/A N/A NW3 30.18S $$ NCZ095-097-098-100-101-260300- SOUTHERN COAST CITY SKY/WX TMP DP RH WIND PRES REMARKS BEAUFORT CLEAR 45 42 89 NW5 30.24R CEDAR ISLAND N/A 52 N/A N/A N5G10 30.27R JACKSONVILLE CLEAR 44 41 89 CALM 30.23R PINEY ISLAND CLEAR 52 44 74 NW8 30.22R WILMINGTON CLEAR 44 42 93 CALM 30.23R $$ NCZ011>013-027>030-043-044-078>080-089-090>093-098-260300- COASTAL PLAIN CITY SKY/WX TMP DP RH WIND PRES REMARKS AHOSKIE CLEAR 37 35 92 CALM 30.24R CLINTON CLEAR 41 41 98 CALM 30.26R ELIZABETHTOWN CLEAR 46 39 78 CALM 30.24S GOLDSBORO CLEAR 44 43 97 CALM 30.22R GREENVILLE CLEAR 37 37 100 CALM 30.24S FOG HAVELOCK CLEAR 44 41 89 CALM 30.24R KENANSVILLE CLEAR 39 38 96 CALM 30.26R KINSTON CLEAR 38 37 97 CALM 30.25R NEW BERN CLEAR 43 40 89 CALM 30.24R RICHLANDS CLEAR 39 37 93 CALM 30.24R ROCKY MOUNT CLEAR 39 36 89 CALM 30.23R WASHINGTON CLEAR 41 38 90 CALM 30.23S WHITEVILLE CLEAR 44 41 89 CALM 30.24R $$ AMZ130-135-150-152-154-156-158-170-250-252-270-ANZ085-086-088-633-658-670-260300- MARINE OBSERVATIONS STATION/POSITION TIME TEMP WIND PRES WAVE SWELL AIR SEA DIR/SP/G HT/PER HT/PER (UTC) (F) (DEG/KT/KT) (MB) (FT/S) (FT/S) CHESAPEAKE LIGHT 0200 51 230/ 4/ 4 1023.5 64 E VA BEACH 0200 52 52 250/ 4/ 4 1022.0 4/ 6 3/ 6 DUCK 0200 51 50 280/ 7/ 7 1022.4 2 E DUCK 0200 50 N/A 2/10 10 NE DUCK 0200 50 N/A 2/ 8 OREGON INLET 0200 50 55 290/ 5/ 6 1023.1 13E OREGON INLT 0200 51 N/A 3/ 9 HATTERAS CG 0200 54 58 330/ 5/ 7 1023.5 DIAMOND BUOY 0200 56 1022.9 5/10 17 S OCRACOKE NOT AVBL CAPE LOOKOUT 0200 55 330/ 7/ 8 1023.4 BEAUFORT LAB 0200 51 55 300/ 2/ 4 1022.8 30 SE NEW RIVER 0200 58 60 290/ 8/ 10 1023.7 4/ 7 3/ 7 5 SE WRIGHTSVLE NOT AVBL 225 S CAPE HAT 0057 69 74 320/ 14/ 17 1021.8 8/ 8 7/ 8 41 SE CHARLESTON 0200 59 71 330/ 10/ 14 1023.7 3/ 5 2/ 5 $$

USA.gov is the U.S. government's official web portal to all federal, state and local government web resources and services.